Погода в Балахте

Погода в Балахте : погода сейчас, прогноз погоды и архив. Всё, что Вы хотите узнать о погоде в Балахте!

Поиск расширенной информации на нашем сайте:

Другие новости

Новости СМИ2

Главная страница сайта

Новости сайта

03.07.2017

Напоминаем, что на нашем специализированном сайте Метеоцентр.Азия вы можете получить высокодетализированные автоматические прогнозы погоды по пунктам России, СНГ и мира в авиационном формате (включающие направление и скорость ветра, видимость, явления погоды, количество и форму облачности, нижнюю и верхнюю границу облачности).


Погода в Балахте - сегодня

Время (UTC), дата Ветер
(°,м/с) 
Видим.   Явления Облачность Т
(°С)
Тd
(°С)
f(%) Тe
(°С)
Pmin
(гПа)
dP
(гПа)
Po
(мм)
O2
(г/м3)
Тmin Tmax R s Состояние
почвы
15 18.02.18 тихо ()   4000 м  дымка  ясно 
-24.6 -25.9 89 -25  1039.9  746  332           
18 18.02.18 130 (ЮВ) 4000 м  дымка  ясно 
-25.4 -27.2 85 -26  1039.3  -0.6  746  333           
21 18.02.18 тихо ()   4000 м  дымка  ясно 
-26.6 -28.4 85 -27  1039.5  -0.2  746  335           
00 19.02.18 тихо ()   4000 м  дымка  ясно 
-29 -30.7 85 -29  1039.6  -0.3  745  338  -29.2      33  равномерный
сухой снег
100% 
06 19.02.18 тихо ()   4000 м  дымка  8/0 верхняя 
[Ci sp]
-19.4 -22 80 -19  1036.9  -0.9  745  325           
09 19.02.18 тихо ()   10 км  слаб. снег  10/0 верхняя 
[Cs]
-14.6 -17.3 80 -15  1035.3  -0.7  744  318           
12 19.02.18 тихо ()   20000 м  {снег}  9/0 средняя, верхняя 
[Ac lent|Ci sp]
-15.9 -17.8 85 -16  1036  0.4  745  320    -14.5  0.2     
15 19.02.18 тихо ()   20000 м    10/0 средняя 
[As trans]
-16.6 -18.5 85 -17  1036.3  0.1  745  321           
18 19.02.18 тихо ()   4000 м  слаб. снег  10/0 средняя 
[As op]
-16.8 -18.1 90 -17  1036.2  -0.1  745  321           
21 19.02.18 тихо ()   4000 м  слаб. снег  10/0 средняя 
[As op]
-13.8 -15.1 90 -14  1034.7  -1  744  317           
00 20.02.18 210 (ЮЗ) 2000 м  снег  10/10 1000 м 
[Ns]
-9.8 -11 91 -13  1033.5  -0.5  743  312  -18.8    34  равномерный
сухой снег
100% 
03 20.02.18 210 (ЮЗ) 2000 м  снег  10/10 1000 м 
[Ns]
-9.4 -11 88 -13  1033.5  0.1  744  311           
09 20.02.18 240 (ЮЗ) 20000 м    8/0 верхняя 
[Cs]
-6.2 -9.8 76 -9  1031.8  -0.4  743  307           
12 20.02.18 240 (ЮЗ) 4000 м  слаб. снег  10/0 средняя 
[As op]
-7.7 -8.3 95 -7  1031.6  -0.4  742  309    -6.2     
15 20.02.18 200 (Ю) 2000 м  снег  10/10 1000 м 
[Ns]
-8.3 -8.9 95 -10  1031.3  -0.4  742  309           
18 20.02.18 210 (ЮЗ) 4000 м  слаб. снег  10/0 средняя 
[As op]
-9.1 -9.8 95 -9  1030.4  -1  741  310           
21 20.02.18 220 (ЮЗ) 2000 м  снег  10/10 1000 м 
[Ns]
-8.5 -8.8 98 -10  1029.2  -1  741  309           
00 21.02.18 210 (ЮЗ) 2000 м  снег  10/10 1000 м 
[Ns]
-8.1 -8.7 95 -11  1028.6  -0.5  740  308  -9.1    37  равномерный
сухой снег
100% 
03 21.02.18 240 (ЮЗ) 20000 м  снег  10/0 средняя 
[As op]
-8 -9 93 -12  1028.2  -0.5  740  308           
06 21.02.18 220 (ЮЗ) 20000 м  снег  10/0 средняя 
[As trans]
-6.9 -9.4 82 -8  1027.8  -0.2  740  307           
09 21.02.18 240 (ЮЗ) 20000 м  в посл. час ливневой снег  8/8 600 м кучево-дожд. 
[Cb cap]
-5.9 -9 79 -7  1026.8  -0.8  739  305           
12 21.02.18 180 (Ю) 4000 м  слаб. снег{ливн. осадки}  10/0 средняя 
[As trans]
-8.5 -10 89 -8  1026.7  -0.4  739  308    -5.9  0.6     
15 21.02.18 100 (В) 20000 м  {снег}  3/0 верхняя 
[Ci sp]
-13.2 -13.8 95 -13  1026.5  -1  738  314           
18 21.02.18 120 (ЮВ) 20000 м  {снег}  ясно 
-17.3 -17.9 95 -20  1026.2  -1  737  319           
21 21.02.18 тихо ()   20000 м    ясно 
-21.6 -22.8 90 -22  1026.1  -0.8  737  324           
Время (UTC), дата Ветер
(°,м/с) 
Видим.   Явления Облачность Т
(°С)
Тd
(°С)
f(%) Тe
(°С)
Pmin
(гПа)
dP
(гПа)
Po
(мм)
O2
(г/м3)
Тmin Tmax R s Состояние
почвы

Для получения пояснительной информации подведите курсор к названию столбца.

ПОГОДА в Балахте - архив

Всё, что Вы хотите узнать о погоде в Балахте - удобно и подробно!

Выберите нужную дату (начиная с 1 января 2015* года) и нажмите кнопку "Найти".
Будут отображены архивные сводки погоды по пункту Балахта, начиная с указанной даты.


Отображать данные в формате CSV (для использования в таблицах Excel)


Внимание! Наш архив погоды предназначен исключительно для личного некоммерческого использования в познавательных целях. Если Вам необходимы официальные справки о состоянии погоды (для производственных, юридических, коммерческих и т.п. целей), обращайтесь в органы Росгидромета.

*Примечание: данная дата относится к архиву по метеостанциям СССР (Россия, СНГ, Балтия).
Архив по метеостанциям Зарубежной Европы и Азии (кроме Китая) хранится 10 дней, по другим регионам земного шара (Китай, Африка, Америка, Австралия, Океания) - 1 день.

Балахта - район местоположения метеостанции


Название, широта, долгота, высота метеостанции:
Балахта 55.4°ш. 91.7°д. 321 м над ур. моря [Российская Федерация]

Дополнительная информация

В oтличие oт бoльшинства пoгoдных сайтoв мы публикуем пoдрoбную метеoинфoрмацию в детальнoм прoфессиoнальнoм фoрмате.

Характеристики температуры и влажнoсти вoздуха измеряются на высoте 2 м в тени вдали oт зданий и деревьев.
Скoрoсть ветра измеряется на высoте 10 м (на урoвне рoста челoвека скoрoсть ветра ниже в 1.5-2 раза). Если метеoстанция нахoдится в гoрoде или в лесу, тo скoрoсть ветра занижена на 2-4 м/с пo сравнению с oткрытым местoм. Скoрoсть ветра над акватoриями крупных рек и oзёр, а также на вершинах хoлмoв на 2-5 м/с выше, чем в oбычных услoвиях.
Атмoсфернoе давление в разных тoчках местнoсти мoжет значительнo oтличаться oт давления на метеoстанции, в зависимoсти oт услoвий рельефа (при пoдъёме на 10 м давление пoнижается примернo на 1 мм рт.ст.).